Regional Weather Roundup
Issued by NWS

Home | Current Version | Previous Version | Text Only | Print | Product List | Glossary Off
Versions: 1 2 3 4 5 6 7 8 9 10 11 12 13 14 15 16 17 18 19 20 21 22 23 24 25 26 27 28 29 30 31 32 33 34 35 36 37 38 39 40 41 42 43 44 45 46 47 48 49 50

000
ASUS43 KLOT 272010
RWRIL

ILLINOIS REGIONAL WEATHER ROUNDUP
NATIONAL WEATHER SERVICE CHICAGO/ROMEOVILLE IL
200 PM CST THU NOV 27 2014

NOTE: "FAIR" INDICATES FEW OR NO CLOUDS BELOW 12,000 FEET WITH NO
SIGNIFICANT WEATHER AND/OR OBSTRUCTIONS TO VISIBILITY.

* THESE STATIONS ARE NOT UNDER NWS QUALITY CONTROL. THEY ALSO MAY NOT
  REPORT WEATHER SUCH AS PRECIPITATION OR FOG.

ILZ001-002-007-009-015-016-024-272100-
NORTHWEST ILLINOIS

CITY           SKY/WX    TMP DP  RH WIND       PRES   REMARKS
MOLINE         SUNNY     21   6  52 NW14      30.43S WCI   8
STERLING*      CLOUDY    25  14  63 NW10G16   30.38F WCI  15
SAVANNA*       PTSUNNY   25  13  60 NW8       30.40S WCI  16
$$

ILZ003-004-008-010-011-017-018-272100-
NORTH CENTRAL ILLINOIS

CITY           SKY/WX    TMP DP  RH WIND       PRES   REMARKS
ROCKFORD       FLURRIES  23  12  62 NW10      30.38S WCI  12
FREEPORT*      CLOUDY    21  11  66 NW12      30.38S WCI   9
ROCHELLE*      CLOUDY    22  15  71 W12       30.37S WCI  11
DE KALB*       FLURRIES  22  15  75 NW10      30.35R WCI  11
PERU*          CLOUDY    26  18  73 W14       30.38S WCI  14
$$

ILZ005-006-012>014-019>023-272100-
NORTHEAST ILLINOIS

CITY           SKY/WX    TMP DP  RH WIND       PRES   REMARKS
CHICAGO-OHARE  PTSUNNY   24  14  65 NW16      30.34S WCI  11
CHICAGO-MIDWAY CLOUDY    26  15  63 NW14      30.35R WCI  14
AURORA         LGT SNOW  25  16  68 NW12      30.36R WCI  14
LANSING*       CLOUDY    27  17  66 NW12      30.34S WCI  17
JOLIET*        CLOUDY    26  16  67 N6        30.36S WCI  19
WAUKEGAN       CLOUDY    21  13  71 NW9G17    30.34R WCI  11
DUPAGE AIRPORT CLOUDY    25  13  60 NW14      30.34S WCI  13
KANKAKEE*      CLOUDY   N/A N/A N/A NW14      30.36S
WHEELING       CLOUDY    23  14  68 NW9       30.37R WCI  13
MORRIS*        FLURRIES  26  21  80 NW14      30.36S WCI  15
ROMEOVILLE*    CLOUDY    25  17  69 NW12      30.35S WCI  14
NORTHERLY ISL    N/A     25  16  68 NW13        N/A  WCI  14
$$

LMZ740>746-272100-
SOUTHERN LAKE MICHIGAN

STATION/POSITION SKY/WX   TEMP    WIND        PRES    VSBY  WAVE
                          AIR SEA DIR/SP/G                  HT/PER
                          (F)     (DEG/KT/KT) (MB)    (MI)  (FT/S)
SOUTHERN BUOY              27 42  320/ 19/ 23 1026.6R         7/ 7
WAUKEGAN HARBOR            22     320/ 13/ 17   N/A
HARRISON CRIB              24     320/ 15/ 18   N/A
BURNHAM HARBOR             26     280/ 10/ 15   N/A
CALUMET HARBOR             26     310/  8/ 11 1026.0F
MICHIGAN CITY              27     270/ 21/ 24   N/A
$$

ILZ025>027-034>036-040-047-049-050-058-095>099-272100-
WEST-CENTRAL ILLINOIS

CITY           SKY/WX    TMP DP  RH WIND       PRES   REMARKS
QUINCY         MOSUNNY   23  15  71 NW9       30.46F WCI  13
GALESBURG*     SUNNY     19  13  76 W14G20    30.44R WCI   6
MACOMB*        SUNNY     20  12  71 NW12      30.48S WCI   8
JACKSONVILLE*  CLOUDY    27  18  68 NW12      30.45F WCI  17
PITTSFIELD*    SUNNY     28  18  66 W8        30.46F WCI  20
$$

ILZ028>032-037-038-041>044-048-051>054-059>061-272100-
CENTRAL ILLINOIS

CITY           SKY/WX    TMP DP  RH WIND       PRES   REMARKS
PONTIAC        FLURRIES  27  21  78 W16       30.39R WCI  14
BLOOMINGTON    FLURRIES  25  18  74 NW14      30.39R WCI  13
DECATUR        CLOUDY    27  21  78 W15       30.41S HAZE    WCI  15
PEORIA         CLOUDY    25  16  68 W12       30.42S WCI  14
LACON*         MOSUNNY   24  15  68 W14G20    30.41R WCI  12
LINCOLN*       CLOUDY    26  19  76 W8        30.44S WCI  18
SPRINGFIELD    FLURRIES  26  18  71 NW17G23   30.45R WCI  13
TAYLORVILLE    MOSUNNY   27  19  74 W14       30.44S WCI  15
$$

ILZ033-039-045-046-055>057-062-063-272100-
EAST-CENTRAL ILLINOIS

CITY           SKY/WX    TMP DP  RH WIND       PRES   REMARKS
CHAMPAIGN      LGT SNOW  27  24  89 W17       30.38S VSB 3/4 WCI  14
DANVILLE*      FLURRIES  28  20  73 NW10      30.33S WCI  18
RANTOUL*       LGT SNOW  29  24  81 W12       30.37S WCI  19
MATTOON        CLOUDY    28  22  78 W15       30.39S WCI  16
PARIS*         LGT SNOW  29  24  82 W14       30.38F WCI  19
$$

ILZ079-100>102-272100-
SOUTHWEST ILLINOIS

CITY           SKY/WX    TMP DP  RH WIND       PRES   REMARKS
ALTON          PTSUNNY   32  19  59 NW14      30.46S WCI  22
BELLEVILLE     PTSUNNY   33  22  62 NW13      30.45F WCI  24
CAHOKIA*       MOSUNNY   34  23  64 NW15      30.46F WCI  24
SPARTA*        CLOUDY    32  24  72 NW6       30.46F WCI  26
$$

ILZ064>066-069>071-074>076-080>082-084>086-088>090-092>094-272100-
SOUTH-CENTRAL ILLINOIS

CITY           SKY/WX    TMP DP  RH WIND       PRES   REMARKS
CARBONDALE     CLOUDY    34  26  72 N9        30.46F WCI  27
CAIRO*         CLOUDY    37  28  69 W7        30.47F WCI  31
EFFINGHAM*     CLOUDY    29  20  67 W10       30.42F WCI  20
MARION         PTSUNNY   34  27  75 NW12      30.47S WCI  25
MT. VERNON     CLOUDY    30  21  69 CALM      30.45S
CENTRALIA*     CLOUDY    32  24  72 W10       30.44S WCI  23
SALEM*           N/A     32  24  72 W12       30.44S WCI  23
METROPOLIS*    CLOUDY    34  27  77 NW7         N/A  WCI  28
$$

ILZ067-068-072-073-078-083-087-091-272100-
SOUTHEAST ILLINOIS

CITY           SKY/WX    TMP DP  RH WIND       PRES   REMARKS
LAWRENCEVILLE  CLOUDY    30  22  72 NW17      30.42S WCI  18
FLORA*         MOSUNNY   29  22  74 NW9       30.44S WCI  21
FAIRFIELD*     CLOUDY    31  24  75 NW3       30.44S
HARRISBURG*    CLOUDY    32  27  80 N7        30.47S WCI  26
ROBINSON*      LGT SNOW  29  24  81 W10       30.42S WCI  20
CARMI*         CLOUDY    32  28  83 W12       30.45S WCI  23
$$

ABBREVIATIONS USED IN REMARKS
   TC - TEMPERATURE IN CELSIUS
  WCI - WIND CHILL INDEX
   HX - HEAT INDEX
  VSB - VISIBILITY
$$



USA.gov is the U.S. government's official web portal to all federal, state and local government web resources and services.